Location: Nitra
(0.0000°N, 18.0833°E)
Time: 06:07:23
(UTC+01:00)

Cosmos 1943 Rocket - Pass Details

Date: 24 January 2021
Orbit: 810 x 845 km, 71.0° (Epoch: 04 March)

Event Time Altitude Azimuth Distance (km) Brightness Sun altitude
Rises 19:41:53 0° 203° (SSW) 3,327 5.9 -24.0°
Reaches altitude 10° 19:44:20 10° 206° (SSW) 2,394 5.1 -24.6°
Maximum altitude 19:49:43 59° 285° (WNW) 932 2.5 -25.8°
Enters shadow 19:51:55 34° 349° (N) 1,300 3.0 -26.4°
